TimeMST,TemperatureF,Dew PointF,Humidity,Sea Level PressureIn,VisibilityMPH,Wind Direction,Wind SpeedMPH,Gust SpeedMPH,PrecipitationIn,Events,Conditions,WindDirDegrees,DateUTC
12:15 AM,25.3,16.5,69,30.24,10.0,WSW,4.6,-,N/A,,Clear,240,2012-12-04 07:15:00
12:35 AM,27.7,17.4,65,30.23,10.0,SW,5.8,-,N/A,,Clear,230,2012-12-04 07:35:00
12:55 AM,23.9,16.2,72,30.24,10.0,West,5.8,-,N/A,,Clear,280,2012-12-04 07:55:00
1:15 AM,24.3,16.0,71,30.24,10.0,West,5.8,-,N/A,,Clear,280,2012-12-04 08:15:00
1:55 AM,24.4,15.3,68,30.26,10.0,West,4.6,-,N/A,,Clear,260,2012-12-04 08:55:00
2:15 AM,23.5,15.6,72,30.27,10.0,WNW,9.2,-,N/A,,Clear,300,2012-12-04 09:15:00
2:35 AM,24.6,17.1,73,30.27,10.0,West,3.5,-,N/A,,Clear,280,2012-12-04 09:35:00
2:55 AM,21.7,14.7,74,30.27,10.0,WNW,4.6,-,N/A,,Clear,290,2012-12-04 09:55:00
3:15 AM,21.9,15.4,76,30.26,10.0,WNW,4.6,-,N/A,,Clear,290,2012-12-04 10:15:00
3:35 AM,21.7,15.3,76,30.26,10.0,WNW,5.8,-,N/A,,Clear,300,2012-12-04 10:35:00
3:55 AM,20.8,14.5,77,30.27,10.0,WNW,4.6,-,N/A,,Clear,300,2012-12-04 10:55:00
4:15 AM,20.7,14.4,77,30.26,10.0,West,4.6,-,N/A,,Clear,280,2012-12-04 11:15:00
4:35 AM,19.8,14.0,78,30.28,10.0,WNW,6.9,-,N/A,,Clear,290,2012-12-04 11:35:00
4:55 AM,19.8,14.7,81,30.28,10.0,WNW,5.8,-,N/A,,Clear,300,2012-12-04 11:55:00
5:15 AM,24.1,16.3,72,30.29,10.0,NW,3.5,-,N/A,,Clear,320,2012-12-04 12:15:00
5:35 AM,19.6,14.5,81,30.30,10.0,WNW,5.8,-,N/A,,Clear,300,2012-12-04 12:35:00
5:55 AM,20.7,14.5,77,30.31,10.0,WNW,4.6,-,N/A,,Clear,300,2012-12-04 12:55:00
6:15 AM,20.7,15.1,79,30.32,10.0,WNW,6.9,-,N/A,,Clear,300,2012-12-04 13:15:00
6:35 AM,21.7,15.3,76,30.32,10.0,NW,4.6,-,N/A,,Clear,320,2012-12-04 13:35:00
6:55 AM,21.0,15.1,78,30.32,10.0,Calm,Calm,-,N/A,,Clear,0,2012-12-04 13:55:00
7:15 AM,20.7,14.9,78,30.32,10.0,NW,4.6,-,N/A,,Clear,320,2012-12-04 14:15:00
7:35 AM,24.3,16.7,73,30.33,10.0,NNW,3.5,-,N/A,,Clear,340,2012-12-04 14:35:00
7:55 AM,27.7,18.5,68,30.33,10.0,Calm,Calm,-,N/A,,Clear,0,2012-12-04 14:55:00
8:15 AM,31.1,21.0,66,30.34,10.0,WNW,3.5,-,N/A,,Clear,300,2012-12-04 15:15:00
8:35 AM,37.8,21.2,51,30.35,10.0,North,5.8,-,N/A,,Clear,360,2012-12-04 15:35:00
8:55 AM,40.1,19.2,43,30.35,10.0,Calm,Calm,-,N/A,,Clear,0,2012-12-04 15:55:00
9:15 AM,42.3,16.7,36,30.36,10.0,SW,3.5,-,N/A,,Clear,220,2012-12-04 16:15:00
9:35 AM,43.3,15.6,33,30.36,10.0,Calm,Calm,-,N/A,,Clear,0,2012-12-04 16:35:00
9:55 AM,44.1,15.4,32,30.36,10.0,SW,5.8,-,N/A,,Clear,220,2012-12-04 16:55:00
10:15 AM,44.1,14.5,30,30.36,10.0,Calm,Calm,-,N/A,,Clear,0,2012-12-04 17:15:00
10:35 AM,46.4,14.0,27,30.35,10.0,SSE,6.9,-,N/A,,Clear,150,2012-12-04 17:35:00
11:15 AM,48.4,12.2,23,30.33,10.0,SSE,8.1,-,N/A,,Clear,160,2012-12-04 18:15:00
11:35 AM,48.4,11.3,22,30.32,10.0,South,6.9,-,N/A,,Clear,190,2012-12-04 18:35:00
11:55 AM,49.1,11.1,22,30.31,10.0,South,8.1,-,N/A,,Clear,180,2012-12-04 18:55:00
12:15 PM,49.5,10.0,20,30.30,10.0,South,9.2,-,N/A,,Clear,170,2012-12-04 19:15:00
12:35 PM,50.2,9.9,20,30.30,10.0,SSW,11.5,19.6,N/A,,Clear,200,2012-12-04 19:35:00
12:55 PM,51.1,9.1,19,30.29,10.0,South,8.1,20.7,N/A,,Clear,180,2012-12-04 19:55:00
1:15 PM,50.5,11.1,21,30.28,10.0,South,10.4,19.6,N/A,,Clear,190,2012-12-04 20:15:00
1:35 PM,51.6,11.3,20,30.28,10.0,South,11.5,19.6,N/A,,Clear,190,2012-12-04 20:35:00
1:55 PM,50.7,9.7,19,30.27,10.0,SSW,9.2,19.6,N/A,,Clear,200,2012-12-04 20:55:00
2:15 PM,49.5,7.9,19,30.26,10.0,South,9.2,20.7,N/A,,Clear,190,2012-12-04 21:15:00
2:35 PM,49.8,8.6,19,30.26,10.0,South,13.8,20.7,N/A,,Clear,190,2012-12-04 21:35:00
2:55 PM,49.1,7.9,19,30.26,10.0,South,9.2,-,N/A,,Clear,190,2012-12-04 21:55:00
3:15 PM,48.7,9.7,21,30.26,10.0,South,8.1,-,N/A,,Clear,180,2012-12-04 22:15:00
3:35 PM,47.5,10.8,23,30.26,10.0,South,8.1,-,N/A,,Clear,180,2012-12-04 22:35:00
3:55 PM,44.4,10.9,26,30.25,10.0,South,6.9,-,N/A,,Clear,180,2012-12-04 22:55:00
4:15 PM,41.2,10.4,28,30.25,10.0,SE,3.5,-,N/A,,Clear,130,2012-12-04 23:15:00
4:35 PM,39.0,10.0,30,30.25,10.0,SW,6.9,-,N/A,,Clear,220,2012-12-04 23:35:00
4:55 PM,37.0,10.6,34,30.25,10.0,SW,4.6,-,N/A,,Clear,230,2012-12-04 23:55:00
5:15 PM,36.7,10.0,33,30.26,10.0,WSW,4.6,-,N/A,,Clear,250,2012-12-05 00:15:00
5:35 PM,35.6,10.2,35,30.26,10.0,SW,4.6,-,N/A,,Clear,230,2012-12-05 00:35:00
5:55 PM,34.9,10.2,36,30.25,10.0,West,8.1,-,N/A,,Clear,260,2012-12-05 00:55:00
6:15 PM,34.2,10.2,37,30.25,10.0,WSW,4.6,-,N/A,,Clear,250,2012-12-05 01:15:00
6:35 PM,36.0,10.4,35,30.26,10.0,WSW,8.1,-,N/A,,Clear,250,2012-12-05 01:35:00
6:55 PM,36.1,10.2,34,30.25,10.0,WSW,8.1,-,N/A,,Clear,250,2012-12-05 01:55:00
7:15 PM,34.0,9.9,37,30.26,10.0,West,5.8,-,N/A,,Clear,280,2012-12-05 02:15:00
7:35 PM,32.9,10.4,39,30.26,10.0,NW,5.8,-,N/A,,Clear,310,2012-12-05 02:35:00
7:55 PM,34.9,10.2,36,30.26,10.0,ENE,8.1,-,N/A,,Clear,70,2012-12-05 02:55:00
8:15 PM,32.9,10.8,40,30.25,10.0,NNW,5.8,-,N/A,,Clear,330,2012-12-05 03:15:00
8:35 PM,34.0,10.8,38,30.25,10.0,NNW,6.9,-,N/A,,Clear,340,2012-12-05 03:35:00
8:55 PM,35.4,10.9,36,30.25,10.0,NNW,6.9,-,N/A,,Clear,330,2012-12-05 03:55:00
9:15 PM,34.3,12.2,40,30.25,10.0,WNW,8.1,-,N/A,,Clear,300,2012-12-05 04:15:00
9:35 PM,35.2,12.2,39,30.24,10.0,WNW,8.1,-,N/A,,Clear,300,2012-12-05 04:35:00
9:55 PM,37.8,11.3,34,30.26,10.0,South,4.6,-,N/A,,Clear,180,2012-12-05 04:55:00
10:15 PM,37.8,11.3,34,30.26,10.0,Calm,Calm,-,N/A,,Clear,0,2012-12-05 05:15:00
10:35 PM,38.5,11.5,33,30.26,10.0,Calm,Calm,-,N/A,,Clear,0,2012-12-05 05:35:00
10:55 PM,36.3,11.8,36,30.25,10.0,WNW,9.2,-,N/A,,Clear,290,2012-12-05 05:55:00
11:15 PM,37.0,13.3,38,30.25,10.0,NW,8.1,-,N/A,,Clear,310,2012-12-05 06:15:00
11:35 PM,36.1,13.8,40,30.25,10.0,SSE,8.1,-,N/A,,Clear,150,2012-12-05 06:35:00
11:55 PM,44.1,17.6,35,30.24,10.0,West,9.2,-,N/A,,Clear,280,2012-12-05 06:55:00